Meteo pe oră la Bolshoe Krichino

Astăzi, 9 Mai, Duminică

Timp Temperatura Precipitaţii Vânt Presiune Umiditate
00:00 0°C° 0.5 mm 7 m/s 740 mmHg 96%
01:00 0°C° 0.5 mm 7 m/s 741 mmHg 95%
02:00 0°C° 0.5 mm 7 m/s 742 mmHg 95%
03:00 +1°C° 0 mm 6 m/s 742 mmHg 93%
04:00 +1°C° 0 mm 6 m/s 743 mmHg 92%
05:00 +1°C° 0 mm 5 m/s 743 mmHg 91%
06:00 +2°C° 0 mm 6 m/s 744 mmHg 86%
07:00 +3°C° 0 mm 6 m/s 744 mmHg 81%
08:00 +4°C° 0 mm 7 m/s 745 mmHg 77%
09:00 +5°C° 0 mm 7 m/s 745 mmHg 70%
10:00 +6°C° 0 mm 7 m/s 746 mmHg 64%
11:00 +8°C° 0 mm 7 m/s 746 mmHg 57%
12:00 +8°C° 0 mm 7 m/s 747 mmHg 56%
13:00 +8°C° 0 mm 7 m/s 747 mmHg 55%
14:00 +9°C° 0 mm 7 m/s 748 mmHg 54%
15:00 +9°C° 0 mm 6 m/s 748 mmHg 56%
16:00 +9°C° 0 mm 5 m/s 748 mmHg 58%
17:00 +10°C° 0 mm 4 m/s 749 mmHg 59%
18:00 +7°C° 0 mm 4 m/s 749 mmHg 64%
19:00 +7°C° 0 mm 3 m/s 750 mmHg 69%
20:00 +4°C° 0 mm 3 m/s 750 mmHg 74%
21:00 +4°C° 0 mm 3 m/s 751 mmHg 75%
22:00 +3°C° 0 mm 3 m/s 751 mmHg 77%
23:00 +3°C° 0 mm 3 m/s 752 mmHg 78%

Mâine, 10 Mai, Luni

Timp Temperatura Precipitaţii Vânt Presiune Umiditate
00:00 +2°C° 0 mm 3 m/s 752 mmHg 79%
01:00 +2°C° 0 mm 3 m/s 752 mmHg 80%
02:00 +1°C° 0 mm 3 m/s 753 mmHg 80%
03:00 +1°C° 0 mm 3 m/s 753 mmHg 80%
04:00 +1°C° 0 mm 3 m/s 753 mmHg 79%
05:00 +2°C° 0 mm 2 m/s 754 mmHg 79%
06:00 +4°C° 0 mm 3 m/s 754 mmHg 71%
07:00 +7°C° 0 mm 3 m/s 754 mmHg 64%
08:00 +9°C° 0 mm 3 m/s 754 mmHg 56%
09:00 +10°C° 0 mm 4 m/s 754 mmHg 53%
10:00 +11°C° 0 mm 4 m/s 754 mmHg 49%
11:00 +12°C° 0 mm 5 m/s 754 mmHg 46%
12:00 +13°C° 0 mm 5 m/s 754 mmHg 45%
13:00 +13°C° 0 mm 5 m/s 753 mmHg 45%
14:00 +14°C° 0 mm 5 m/s 753 mmHg 44%
15:00 +14°C° 0 mm 5 m/s 753 mmHg 48%
16:00 +13°C° 0 mm 5 m/s 753 mmHg 53%
17:00 +13°C° 0 mm 5 m/s 753 mmHg 57%
18:00 +11°C° 0 mm 4 m/s 753 mmHg 64%
19:00 +8°C° 0 mm 4 m/s 753 mmHg 71%
20:00 +7°C° 0 mm 3 m/s 753 mmHg 77%
21:00 +7°C° 0 mm 3 m/s 753 mmHg 78%
22:00 +5°C° 0 mm 4 m/s 753 mmHg 79%
23:00 +5°C° 0 mm 4 m/s 753 mmHg 79%

Poimâine, 11 Mai, Marţi

Timp Temperatura Precipitaţii Vânt Presiune Umiditate
00:00 +4°C° 0 mm 4 m/s 753 mmHg 78%
01:00 +4°C° 0 mm 4 m/s 752 mmHg 77%
02:00 +3°C° 0 mm 5 m/s 752 mmHg 76%
03:00 +3°C° 0 mm 5 m/s 752 mmHg 75%
04:00 +5°C° 0 mm 5 m/s 752 mmHg 74%
05:00 +5°C° 0 mm 5 m/s 752 mmHg 74%
06:00 +5°C° 0 mm 6 m/s 752 mmHg 72%
07:00 +8°C° 0 mm 6 m/s 752 mmHg 70%
08:00 +9°C° 0 mm 7 m/s 752 mmHg 68%
09:00 +11°C° 0 mm 7 m/s 751 mmHg 67%
10:00 +12°C° 0 mm 7 m/s 751 mmHg 67%
11:00 +15°C° 0 mm 7 m/s 751 mmHg 66%
12:00 +15°C° 0 mm 7 m/s 751 mmHg 69%
13:00 +15°C° 0 mm 6 m/s 751 mmHg 72%
14:00 +15°C° 0 mm 6 m/s 751 mmHg 75%
15:00 +14°C° 0.1 mm 6 m/s 751 mmHg 77%
16:00 +14°C° 0.1 mm 5 m/s 751 mmHg 80%
17:00 +13°C° 0.1 mm 5 m/s 751 mmHg 83%
18:00 +12°C° 0 mm 4 m/s 751 mmHg 86%
19:00 +11°C° 0 mm 4 m/s 751 mmHg 89%
20:00 +10°C° 0 mm 3 m/s 751 mmHg 92%
21:00 +10°C° 0.1 mm 3 m/s 751 mmHg 93%
22:00 +10°C° 0.1 mm 3 m/s 750 mmHg 94%
23:00 +10°C° 0.1 mm 3 m/s 750 mmHg 94%

12 Mai, Miercuri

Timp Temperatura Precipitaţii Vânt Presiune Umiditate
00:00 +9°C° 1 mm 2 m/s 750 mmHg 95%
01:00 +9°C° 1 mm 2 m/s 750 mmHg 95%
02:00 +8°C° 1 mm 2 m/s 749 mmHg 95%
03:00 +8°C° 0 mm 2 m/s 749 mmHg 95%
04:00 +8°C° 0 mm 2 m/s 749 mmHg 95%
05:00 +7°C° 0 mm 2 m/s 749 mmHg 94%
06:00 +8°C° 0.2 mm 3 m/s 749 mmHg 92%
07:00 +9°C° 0.2 mm 3 m/s 749 mmHg 90%
08:00 +10°C° 0.2 mm 4 m/s 749 mmHg 87%
09:00 +10°C° 0.4 mm 4 m/s 749 mmHg 84%
10:00 +11°C° 0.4 mm 4 m/s 749 mmHg 80%
11:00 +12°C° 0.4 mm 4 m/s 748 mmHg 77%
12:00 +13°C° 0.2 mm 4 m/s 748 mmHg 73%
13:00 +14°C° 0.2 mm 5 m/s 748 mmHg 70%
14:00 +15°C° 0.2 mm 6 m/s 748 mmHg 66%
15:00 +14°C° 0.3 mm 5 m/s 748 mmHg 71%
16:00 +13°C° 0.3 mm 5 m/s 748 mmHg 76%
17:00 +12°C° 0.3 mm 4 m/s 748 mmHg 80%
18:00 +12°C° 0.2 mm 3 m/s 748 mmHg 84%
19:00 +11°C° 0.2 mm 3 m/s 748 mmHg 88%
20:00 +10°C° 0.2 mm 2 m/s 747 mmHg 92%
21:00 +10°C° 0.1 mm 3 m/s 747 mmHg 91%
22:00 +11°C° 0.1 mm 4 m/s 746 mmHg 91%
23:00 +10°C° 0.1 mm 5 m/s 746 mmHg 90%

13 Mai, Joi

Timp Temperatura Precipitaţii Vânt Presiune Umiditate
00:00 +10°C° 0.1 mm 5 m/s 746 mmHg 91%
01:00 +9°C° 0.1 mm 5 m/s 745 mmHg 92%
02:00 +9°C° 0.1 mm 5 m/s 745 mmHg 93%
03:00 +10°C° 0.2 mm 4 m/s 744 mmHg 93%
04:00 +10°C° 0.2 mm 4 m/s 744 mmHg 93%
05:00 +10°C° 0.2 mm 3 m/s 744 mmHg 94%
06:00 +10°C° 0.5 mm 4 m/s 744 mmHg 93%
07:00 +10°C° 0.5 mm 4 m/s 744 mmHg 92%
08:00 +10°C° 0.5 mm 5 m/s 744 mmHg 91%
09:00 +12°C° 0.2 mm 5 m/s 744 mmHg 86%
10:00 +14°C° 0.2 mm 6 m/s 744 mmHg 81%
11:00 +15°C° 0.2 mm 6 m/s 744 mmHg 76%
12:00 +16°C° 0.1 mm 6 m/s 744 mmHg 73%
13:00 +16°C° 0.1 mm 6 m/s 744 mmHg 70%
14:00 +17°C° 0.1 mm 6 m/s 744 mmHg 67%
15:00 +17°C° 0.1 mm 5 m/s 744 mmHg 71%
16:00 +17°C° 0.1 mm 4 m/s 744 mmHg 74%
17:00 +17°C° 0.1 mm 3 m/s 744 mmHg 78%
18:00 +16°C° 0.1 mm 2 m/s 744 mmHg 81%
19:00 +15°C° 0.1 mm 2 m/s 744 mmHg 85%
20:00 +14°C° 0.1 mm 2 m/s 744 mmHg 89%
21:00 +14°C° 0.1 mm 2 m/s 744 mmHg 91%
22:00 +13°C° 0.1 mm 3 m/s 744 mmHg 92%
23:00 +13°C° 0.1 mm 3 m/s 743 mmHg 93%

14 Mai, Vineri

Timp Temperatura Precipitaţii Vânt Presiune Umiditate
00:00 +13°C° 0.5 mm 3 m/s 743 mmHg 93%
01:00 +13°C° 0.5 mm 4 m/s 743 mmHg 93%
02:00 +13°C° 0.5 mm 4 m/s 743 mmHg 93%
03:00 +13°C° 1.6 mm 4 m/s 742 mmHg 94%
04:00 +13°C° 1.6 mm 4 m/s 742 mmHg 95%
05:00 +13°C° 1.6 mm 4 m/s 742 mmHg 97%
06:00 +13°C° 0.6 mm 5 m/s 742 mmHg 94%
07:00 +14°C° 0.6 mm 5 m/s 742 mmHg 92%
08:00 +15°C° 0.6 mm 5 m/s 742 mmHg 90%
09:00 +17°C° 0 mm 5 m/s 742 mmHg 82%
10:00 +19°C° 0 mm 5 m/s 742 mmHg 75%
11:00 +20°C° 0 mm 5 m/s 742 mmHg 67%
12:00 +20°C° 0.1 mm 6 m/s 742 mmHg 66%
13:00 +21°C° 0.1 mm 6 m/s 742 mmHg 65%
14:00 +21°C° 0.1 mm 6 m/s 743 mmHg 64%
15:00 +20°C° 0 mm 5 m/s 743 mmHg 68%
16:00 +19°C° 0 mm 5 m/s 743 mmHg 72%
17:00 +19°C° 0 mm 4 m/s 743 mmHg 75%
18:00 +17°C° 0 mm 4 m/s 743 mmHg 80%
19:00 +16°C° 0 mm 3 m/s 743 mmHg 85%
20:00 +15°C° 0 mm 2 m/s 743 mmHg 90%
21:00 +14°C° 0 mm 2 m/s 743 mmHg 90%
22:00 +14°C° 0 mm 1 m/s 743 mmHg 89%
23:00 +13°C° 0 mm 1 m/s 743 mmHg 89%
Arată mai mult

Formular de consimțământ

Meteoprog și furnizorii noștri de servicii pot stoca și accesa date personale, precum cookies, identificatori de dispozitiv sau alte tehnologii similare pe dispozitivul dumneavoastră și procesa astfel de date pentru a personaliza conținutul și reclamele, dar și pentru a oferi caracteristici de social media și pentru a analiza traficul.

  • Stocarea și/sau accesarea informațiilor pe dispozitivul dumneavoastră

    Cookies, identificatori de dispozitiv sau alte informații pot fi stocate sau accesate pe dispozitiv în scopurile indicate mai sus.

  • Reclame și conținut personalizat, evaluarea reclamelor și a conținutului, informații despre audiențe și dezvoltarea produselor

    Reclamele și conținutul pot fi personalizate pe baza unui profil. Pot fi adăugate date suplimentare pentru a personaliza mai bine reclamele și conținutul. Performanța reclamelor și conținutului poate fi măsurată. Pot fi obținute informații despre utilizatorii care au văzut reclamele și conținutul. Aceste date pot fi utilizate pentru a dezvolta sau îmbunătăți experiența utilizatorilor, sistemele și software-ul.

Dând clic pe ‘Sunt de acord’, permiteți utilizarea cookie-urilor menționate, a identificatorilor de dispozitiv, balizelor web sau altor tehnologii similare. Setările pot fi modificate din browser-ul dispozitivului dumneavoastră.

În anumite scopuri, interesele legitime pot prima asupra consimțământului. Puteți citi mai multe informații în acest sens în Politica privind Confidențialitatea Datelor și Cookie.